SL-14 DEB, 45300

Orbit data source: Space-Track

SL-14 DEB, 45300 is space debris in LEO originally from a launch on Thu, 15 Aug 1991 UTC launched from the Plesetsk Missile And Space Complex (PKMTR). Debris objects in space refer to the collection of defunct objects orbiting the Earth. Examples of debris include non-operational satellites, rocket bodies, and fragments generated from explosions, collisions, or faulty payload assembly.

Loading next visibility...
Identifier
45300, 1991-056AN
Orbit
LEO
Country
Flag of CISCIS
Related business
Manufacturer
Unknown
Mission
Spacecraft
Bus & Motor
Unknown
Mass
Unknown
Launch date (UTC)
1991-08-15 (34 years ago)
Launch vehicle
Unknown
Launch site
Plesetsk Missile And Space Complex (PKMTR)
Object type
Payload
Rocket body
Debris
Shape & HBR
Unknown shape, 0.1 m
Radar Cross Section
Small (<0.1 m²)

Expand to show TLE details & history
Last TLE update: 17 hours ago

TLE from 17 hours ago
0 SL-14 DEB
1 45300U 91056AN  26035.22419289  .00000581  00000-0  19779-2 0  9995
2 45300  82.5555 296.9756 0127220  66.8273 294.6179 12.94270095280618
Epoch: 2026-02-04T05:22Z
TLE epoch observation values (Epoch: 2026-02-04T05:22:50.265Z)
Latitude
-0.00009°
Longitude
81.87231°
Altitude
1,247.815 km
Speed
7.25 km/s
True Right ascension
19h 47m 54s
True Declination
0° 00' 00"
Sunlit
Object was in daylight at epoch
Visualization orbit readout
Latitude
Unknown
Longitude
Unknown
Altitude
Unknown
Speed
Unknown
Apparent Right ascension
Unknown
Apparent Declination
Unknown
Sunlit
N/A
Visualization observer readout
Local Sidereal Time
00:46:47
Azimuth
Unknown
Elevation
Unknown
Doppler factor
Unknown
Orbital elements
Apogee altitude
1,379.35 km
Perigee altitude
1,184.448 km
Semi-major axis
7,660.036 km
Eccentricity
0.01272
Inclination
82.5555°
RAAN
296.9756°
Arg. of periapsis
66.8273°
True anomaly
293.28386°
Mean anomaly
294.6179°
Eccentric anomaly
293.95175°
Mean motion
3.2374 °/min
Orbital period
111.2 mins
BSTAR
0.0019779
Loading maneuver chart data...
Computing Atmospheric mass density...
Loading historical data...
Loading historical data...
Loading historical data...
Loading historical data...
Loading historical data...
Loading historical data...
Loading historical data...

Documentation

Showing up to 5 results
|